Marion Regional, IL

8:30 PM CDT on April 26, 2017 (GMT -0500)
Williamson County Regional

Weather History for KMWA - February, 2014

Change the Weather History Date:

Tuesday, February 4, 2014

  Actual Average Record
Temperature  
Mean Temperature 28 °F -  
Max Temperature 32 °F 41 °F 69 °F (2008)
Min Temperature 24 °F 20 °F -11 °F (1985)
Degree Days  
Heating Degree Days 37    
Moisture  
Dew Point 25 °F    
Average Humidity 86    
Maximum Humidity 93    
Minimum Humidity 75    
Precipitation  
Precipitation 0.01 in - - ()
Sea Level Pressure  
Sea Level Pressure 30.11 in    
Wind  
Wind Speed 6 mph (NNE)    
Max Wind Speed 15 mph    
Max Gust Speed 21 mph    
Visibility 6 miles    
Events Fog , Rain , Snow    
Averages and records for this station are not official NWS values.
T = Trace of Precipitation, MM = Missing Value Source: NWS Daily Summary

Daily Weather History Graph

Daily Weather History Graph

Search for Another Location

Airport or City:

Trip Planner

Search our weather history database for the weather conditions in past years. The results will help you decide how hot, cold, wet, or windy it might be!

Date:

Astronomy

Feb. 04, 2014 Rise Set
Actual Time 6:57 AM CST 5:23 PM CST
Civil Twilight 6:29 AM CST 5:50 PM CST
Nautical Twilight 5:58 AM CST 6:21 PM CST
Astronomical Twilight 5:27 AM CST 6:52 PM CST
Moon 9:41 AM CST (2/4) 11:09 PM CST (2/4)
Length of Visible Light 11h 20m
Length of Day
10h 25m
Waxing Crescent, 29% of the Moon is Illuminated
Feb 4
Waxing Crescent
Feb 6
First Quarter
Feb 14
Full
Feb 22
Last Quarter
Mar 1
New

Hourly Weather History & Observations

Time (CST) Temp. Windchill Dew Point Humidity Pressure Visibility Wind Dir Wind Speed Gust Speed Precip Events Conditions
12:15 AM 24.8 °F 19.1 °F 19.4 °F 80% 30.30 in 10.0 mi NE 4.6 mph - N/A   Clear
12:35 AM 24.8 °F 19.1 °F 19.4 °F 80% 30.30 in 10.0 mi NE 4.6 mph - N/A   Clear
12:55 AM 24.8 °F 19.1 °F 19.4 °F 80% 30.31 in 10.0 mi North 4.6 mph - N/A   Clear
1:15 AM 24.8 °F 20.5 °F 19.4 °F 80% 30.32 in 10.0 mi NNW 3.5 mph - N/A   Clear
1:35 AM 24.8 °F 17.9 °F 21.2 °F 86% 30.30 in 10.0 mi NNE 5.8 mph - N/A   Clear
1:55 AM 24.8 °F 17.9 °F 21.2 °F 86% 30.28 in 10.0 mi NNE 5.8 mph - N/A   Clear
2:15 AM 24.8 °F 19.1 °F 21.2 °F 86% 30.28 in 10.0 mi NE 4.6 mph - N/A   Clear
2:35 AM 24.8 °F 17.9 °F 21.2 °F 86% 30.27 in 10.0 mi NE 5.8 mph - N/A   Clear
2:55 AM 24.8 °F 19.1 °F 21.2 °F 86% 30.26 in 10.0 mi NNE 4.6 mph - N/A   Clear
3:15 AM 24.8 °F - 21.2 °F 86% 30.28 in 10.0 mi Calm Calm - N/A   Clear
3:35 AM 24.8 °F - 21.2 °F 86% 30.29 in 10.0 mi Calm Calm - N/A   Clear
3:55 AM 24.8 °F - 21.2 °F 86% 30.30 in 10.0 mi Calm Calm - N/A   Clear
4:15 AM 24.8 °F 20.5 °F 21.2 °F 86% 30.29 in 10.0 mi NE 3.5 mph - N/A   Clear
4:35 AM 24.8 °F 17.9 °F 21.2 °F 86% 30.27 in 7.0 mi NNE 5.8 mph - N/A   Clear
4:55 AM 24.8 °F 16.1 °F 21.2 °F 86% 30.26 in 7.0 mi NNE 8.1 mph - N/A   Clear
5:15 AM 24.8 °F 19.1 °F 21.2 °F 86% 30.29 in 7.0 mi North 4.6 mph - N/A   Clear
5:35 AM 24.8 °F 17.9 °F 21.2 °F 86% 30.29 in 7.0 mi North 5.8 mph - N/A   Clear
5:55 AM 24.8 °F 16.9 °F 23.0 °F 93% 30.27 in 7.0 mi NNE 6.9 mph - N/A   Clear
6:15 AM 26.6 °F 19.1 °F 23.0 °F 86% 30.27 in 7.0 mi NE 6.9 mph - N/A   Clear
6:55 AM 26.6 °F 19.1 °F 23.0 °F 86% 30.25 in 7.0 mi NNE 6.9 mph - N/A   Scattered Clouds
7:55 AM 28.4 °F 22.2 °F 23.0 °F 80% 30.27 in 5.0 mi NNE 5.8 mph - N/A   Mostly Cloudy
8:55 AM 28.4 °F 21.2 °F 24.8 °F 86% 30.22 in 7.0 mi ENE 6.9 mph - N/A   Mostly Cloudy
9:55 AM 32.0 °F 25.6 °F 24.8 °F 75% 30.24 in 10.0 mi NE 6.9 mph - N/A   Overcast
10:55 AM 32.0 °F 23.0 °F 24.8 °F 75% 30.22 in 10.0 mi NNE 11.5 mph - N/A   Overcast
11:55 AM 32.0 °F 25.6 °F 24.8 °F 75% 30.21 in 10.0 mi NE 6.9 mph - N/A   Overcast
12:30 PM 32.0 °F 23.0 °F 24.8 °F 75% 30.14 in 5.5 mi NE 11.5 mph - N/A Snow Light Snow
12:53 PM 30.2 °F 19.3 °F 26.6 °F 86% 30.07 in 0.2 mi ENE 15.0 mph - N/A Fog , Snow Light Snow
1:16 PM 30.2 °F 19.3 °F 28.4 °F 93% 30.03 in 0.5 mi NE 15.0 mph - N/A Snow Light Snow
1:35 PM 30.2 °F 21.9 °F 26.6 °F 86% 30.01 in 5.5 mi ENE 9.2 mph 20.7 mph N/A Snow Light Snow
1:56 PM 30.2 °F 20.8 °F 26.6 °F 86% 30.03 in 3.0 mi NE 11.5 mph 20.7 mph N/A Snow Light Snow
2:27 PM 30.2 °F 20.8 °F 26.6 °F 86% 30.02 in 3.0 mi NE 11.5 mph 20.7 mph N/A Snow Light Snow
2:54 PM 30.2 °F 20.8 °F 28.4 °F 93% 30.01 in 3.0 mi NE 11.5 mph - N/A Snow Light Snow
3:56 PM 30.2 °F 22.6 °F 26.6 °F 86% 30.00 in 2.0 mi NE 8.1 mph - N/A Snow Light Snow
4:54 PM 30.2 °F 19.8 °F 26.6 °F 86% 29.97 in 3.0 mi NE 13.8 mph - N/A Snow Light Snow
5:53 PM 30.2 °F 20.8 °F 26.6 °F 86% 29.91 in 4.0 mi ENE 11.5 mph - N/A Rain Light Freezing Rain
7:15 PM 30.2 °F 23.4 °F 26.6 °F 86% 29.94 in 10.0 mi NE 6.9 mph - N/A   Overcast
7:35 PM 30.2 °F 24.3 °F 26.6 °F 86% 29.92 in 10.0 mi NE 5.8 mph - N/A   Overcast
7:55 PM 30.2 °F 23.4 °F 26.6 °F 86% 29.91 in 10.0 mi NE 6.9 mph - N/A   Overcast
8:15 PM 30.2 °F 23.4 °F 26.6 °F 86% 29.90 in 10.0 mi NE 6.9 mph - N/A   Overcast
8:35 PM 30.2 °F 24.3 °F 26.6 °F 86% 29.90 in 5.0 mi NNE 5.8 mph - N/A   Overcast
8:55 PM 30.2 °F 25.4 °F 28.4 °F 93% 29.90 in 4.0 mi North 4.6 mph - 0.01 in   Overcast
9:15 PM 30.2 °F 25.4 °F 28.4 °F 93% 29.88 in 2.5 mi North 4.6 mph - N/A   Overcast
9:35 PM 30.2 °F - 28.4 °F 93% 29.89 in 2.5 mi Calm Calm - N/A   Overcast
9:55 PM 30.2 °F 25.4 °F 28.4 °F 93% 29.88 in 2.0 mi North 4.6 mph - N/A   Overcast
10:15 PM 30.2 °F - 28.4 °F 93% 29.89 in 2.5 mi Calm Calm - N/A   Overcast
10:35 PM 30.2 °F 26.7 °F 28.4 °F 93% 29.89 in 3.0 mi North 3.5 mph - N/A   Overcast
10:55 PM 30.2 °F 26.7 °F 28.4 °F 93% 29.90 in 2.0 mi NW 3.5 mph - N/A   Overcast
11:15 PM 30.2 °F 26.7 °F 28.4 °F 93% 29.91 in 1.8 mi NW 3.5 mph - N/A   Overcast
11:35 PM 30.2 °F 26.7 °F 28.4 °F 93% 29.91 in 1.8 mi NW 3.5 mph - N/A   Overcast
11:55 PM 30.2 °F 26.7 °F 28.4 °F 93% 29.88 in 2.5 mi North 3.5 mph - N/A   Overcast